Time,TemperatureF,DewpointF,PressureIn,WindDirection,WindDirectionDegrees,WindSpeedMPH,WindSpeedGustMPH,Humidity,HourlyPrecipIn,Conditions,Clouds,dailyrainin,SoftwareType,DateUTC
2013-04-11 00:00:00,72.7,57.5,29.75,North,0,0.0,0.0,59,0.00,,,0.00,WUHU216HW,2013-04-11 05:00:00,
2013-04-11 00:05:00,72.7,57.5,29.75,North,0,0.0,0.0,59,0.00,,,0.00,WUHU216HW,2013-04-11 05:05:00,
2013-04-11 00:10:00,72.7,57.5,29.75,North,0,0.0,0.0,59,0.00,,,0.00,WUHU216HW,2013-04-11 05:10:00,
2013-04-11 00:15:00,72.7,58.1,29.75,North,0,0.0,0.0,60,0.00,,,0.00,WUHU216HW,2013-04-11 05:15:00,
2013-04-11 00:20:00,72.7,58.1,29.75,North,0,0.0,0.0,60,0.00,,,0.00,WUHU216HW,2013-04-11 05:20:00,
2013-04-11 00:25:00,72.9,57.7,29.75,North,0,0.0,0.0,59,0.00,,,0.00,WUHU216HW,2013-04-11 05:25:00,
2013-04-11 00:30:00,72.9,57.7,29.75,North,0,0.0,0.0,59,0.00,,,0.00,WUHU216HW,2013-04-11 05:30:00,
2013-04-11 00:35:00,72.9,57.7,29.75,North,0,0.0,0.0,59,0.00,,,0.00,WUHU216HW,2013-04-11 05:35:00,
2013-04-11 00:40:00,72.9,57.7,29.75,North,0,0.0,0.0,59,0.00,,,0.00,WUHU216HW,2013-04-11 05:40:00,
2013-04-11 00:45:00,72.9,57.7,29.76,SW,225,1.3,1.3,59,0.00,,,0.00,WUHU216HW,2013-04-11 05:45:00,
2013-04-11 00:50:00,73.1,57.9,29.76,SW,225,1.1,3.1,59,0.00,,,0.00,WUHU216HW,2013-04-11 05:50:00,
2013-04-11 00:55:00,72.9,58.2,29.76,South,180,2.0,3.1,60,0.00,,,0.00,WUHU216HW,2013-04-11 05:55:00,
2013-04-11 01:00:00,72.7,58.1,29.75,SSW,203,0.7,2.0,60,0.00,,,0.00,WUHU216HW,2013-04-11 06:00:00,
2013-04-11 01:05:00,72.7,58.1,29.75,SE,135,0.4,2.0,60,0.00,,,0.00,WUHU216HW,2013-04-11 06:05:00,
2013-04-11 01:10:00,72.5,57.9,29.75,SSW,203,0.9,1.1,60,0.00,,,0.00,WUHU216HW,2013-04-11 06:10:00,
2013-04-11 01:15:00,72.5,57.9,29.75,SW,225,0.4,0.9,60,0.00,,,0.00,WUHU216HW,2013-04-11 06:15:00,
2013-04-11 01:20:00,72.4,58.1,29.74,SSE,158,0.9,0.9,61,0.00,,,0.00,WUHU216HW,2013-04-11 06:20:00,
2013-04-11 01:25:00,72.4,58.1,29.74,SW,225,0.9,0.9,61,0.00,,,0.00,WUHU216HW,2013-04-11 06:25:00,
2013-04-11 01:30:00,72.2,58.0,29.74,South,180,1.8,1.8,61,0.00,,,0.00,WUHU216HW,2013-04-11 06:30:00,
2013-04-11 01:35:00,72.2,58.0,29.74,North,0,0.0,1.8,61,0.00,,,0.00,WUHU216HW,2013-04-11 06:35:00,
2013-04-11 01:40:00,72.4,58.6,29.74,ESE,113,0.4,1.8,62,0.00,,,0.00,WUHU216HW,2013-04-11 06:40:00,
2013-04-11 01:45:00,72.2,58.0,29.74,SW,225,1.1,1.1,61,0.00,,,0.00,WUHU216HW,2013-04-11 06:45:00,
2013-04-11 01:50:00,72.2,58.4,29.74,North,0,0.0,1.1,62,0.00,,,0.00,WUHU216HW,2013-04-11 06:50:00,
2013-04-11 01:55:00,72.0,58.2,29.73,North,0,0.0,1.1,62,0.00,,,0.00,WUHU216HW,2013-04-11 06:55:00,
2013-04-11 02:00:00,72.0,58.2,29.73,North,0,0.0,0.0,62,0.00,,,0.00,WUHU216HW,2013-04-11 07:00:00,
2013-04-11 02:05:00,72.0,58.2,29.73,North,0,0.0,0.0,62,0.00,,,0.00,WUHU216HW,2013-04-11 07:05:00,
2013-04-11 02:10:00,71.6,58.0,29.73,North,0,0.0,0.0,62,0.00,,,0.00,WUHU216HW,2013-04-11 07:10:00,
2013-04-11 02:15:00,71.6,58.3,29.73,North,0,0.0,0.0,63,0.00,,,0.00,WUHU216HW,2013-04-11 07:15:00,
2013-04-11 02:20:00,71.5,58.2,29.73,North,0,0.0,0.0,63,0.00,,,0.00,WUHU216HW,2013-04-11 07:20:00,
2013-04-11 02:25:00,71.3,58.1,29.72,North,0,0.0,0.0,63,0.00,,,0.00,WUHU216HW,2013-04-11 07:25:00,
2013-04-11 02:30:00,71.1,57.9,29.72,North,0,0.0,0.0,63,0.00,,,0.00,WUHU216HW,2013-04-11 07:30:00,
2013-04-11 02:35:00,70.9,57.7,29.73,North,0,0.0,0.0,63,0.00,,,0.00,WUHU216HW,2013-04-11 07:35:00,
2013-04-11 02:40:00,70.9,57.7,29.73,North,0,0.0,0.0,63,0.00,,,0.00,WUHU216HW,2013-04-11 07:40:00,
2013-04-11 02:45:00,70.9,57.7,29.73,North,0,0.0,0.0,63,0.00,,,0.00,WUHU216HW,2013-04-11 07:45:00,
2013-04-11 02:50:00,70.9,57.7,29.72,North,0,0.0,0.0,63,0.00,,,0.00,WUHU216HW,2013-04-11 07:50:00,
2013-04-11 02:55:00,70.9,57.7,29.73,North,0,0.0,0.0,63,0.00,,,0.00,WUHU216HW,2013-04-11 07:55:00,
2013-04-11 03:00:00,70.7,58.0,29.72,North,0,0.0,0.0,64,0.00,,,0.00,WUHU216HW,2013-04-11 08:00:00,
2013-04-11 03:05:00,70.6,57.8,29.72,SSW,203,0.4,1.1,64,0.00,,,0.00,WUHU216HW,2013-04-11 08:05:00,
2013-04-11 03:10:00,70.6,57.8,29.72,ESE,113,1.1,1.1,64,0.00,,,0.00,WUHU216HW,2013-04-11 08:10:00,
2013-04-11 03:15:00,70.6,57.8,29.72,WSW,248,0.0,1.1,64,0.00,,,0.00,WUHU216HW,2013-04-11 08:15:00,
2013-04-11 03:20:00,70.6,57.8,29.72,SW,225,0.9,2.7,64,0.00,,,0.00,WUHU216HW,2013-04-11 08:20:00,
2013-04-11 03:25:00,70.4,57.6,29.72,South,180,1.1,2.7,64,0.00,,,0.00,WUHU216HW,2013-04-11 08:25:00,
2013-04-11 03:30:00,70.2,57.4,29.72,SW,225,1.1,1.3,64,0.00,,,0.00,WUHU216HW,2013-04-11 08:30:00,
2013-04-11 03:35:00,70.2,57.4,29.73,North,0,0.0,1.1,64,0.00,,,0.00,WUHU216HW,2013-04-11 08:35:00,
2013-04-11 03:40:00,70.2,57.4,29.73,ESE,113,0.0,2.7,64,0.00,,,0.00,WUHU216HW,2013-04-11 08:40:00,
2013-04-11 03:45:00,70.2,57.9,29.72,SSE,158,0.2,2.7,65,0.00,,,0.00,WUHU216HW,2013-04-11 08:45:00,
2013-04-11 03:50:00,70.0,57.7,29.73,SW,225,1.6,1.6,65,0.00,,,0.00,WUHU216HW,2013-04-11 08:50:00,
2013-04-11 03:55:00,69.8,57.5,29.73,SSE,158,1.6,2.9,65,0.00,,,0.00,WUHU216HW,2013-04-11 08:55:00,
2013-04-11 04:00:00,69.8,57.5,29.73,SSW,203,1.8,2.9,65,0.00,,,0.00,WUHU216HW,2013-04-11 09:00:00,
2013-04-11 04:05:00,69.8,57.5,29.73,SSE,158,1.6,1.8,65,0.00,,,0.00,WUHU216HW,2013-04-11 09:05:00,
2013-04-11 04:10:00,69.7,57.3,29.74,SSW,203,1.3,2.7,65,0.00,,,0.00,WUHU216HW,2013-04-11 09:10:00,
2013-04-11 04:15:00,69.7,57.3,29.73,ENE,68,0.2,2.7,65,0.00,,,0.00,WUHU216HW,2013-04-11 09:15:00,
2013-04-11 04:20:00,69.7,57.3,29.73,SSE,158,2.0,2.7,65,0.00,,,0.00,WUHU216HW,2013-04-11 09:20:00,
2013-04-11 04:25:00,69.5,57.2,29.73,WSW,248,2.5,3.6,65,0.00,,,0.00,WUHU216HW,2013-04-11 09:25:00,
2013-04-11 04:30:00,69.5,57.2,29.72,SSW,203,2.5,3.6,65,0.00,,,0.00,WUHU216HW,2013-04-11 09:30:00,
2013-04-11 04:35:00,69.3,57.0,29.72,SSW,203,2.2,2.5,65,0.00,,,0.00,WUHU216HW,2013-04-11 09:35:00,
2013-04-11 04:40:00,69.3,57.0,29.72,ENE,68,2.0,2.5,65,0.00,,,0.00,WUHU216HW,2013-04-11 09:40:00,
2013-04-11 04:45:00,69.1,57.2,29.72,SSE,158,1.8,2.2,66,0.00,,,0.00,WUHU216HW,2013-04-11 09:45:00,
2013-04-11 04:50:00,69.1,57.2,29.72,North,0,0.0,1.8,66,0.00,,,0.00,WUHU216HW,2013-04-11 09:50:00,
2013-04-11 04:55:00,69.1,57.2,29.72,South,180,0.4,1.8,66,0.00,,,0.00,WUHU216HW,2013-04-11 09:55:00,
2013-04-11 05:00:00,69.1,57.2,29.72,SE,135,1.1,1.1,66,0.00,,,0.00,WUHU216HW,2013-04-11 10:00:00,
2013-04-11 05:05:00,68.9,57.1,29.72,SW,225,0.7,1.1,66,0.00,,,0.00,WUHU216HW,2013-04-11 10:05:00,
2013-04-11 05:10:00,68.9,57.1,29.72,East,90,0.0,1.1,66,0.00,,,0.00,WUHU216HW,2013-04-11 10:10:00,
2013-04-11 05:15:00,68.8,56.9,29.72,East,90,0.0,0.7,66,0.00,,,0.00,WUHU216HW,2013-04-11 10:15:00,
2013-04-11 05:20:00,68.4,57.0,29.72,North,0,0.0,0.0,67,0.00,,,0.00,WUHU216HW,2013-04-11 10:20:00,
2013-04-11 05:25:00,68.4,57.0,29.72,ENE,68,0.4,0.4,67,0.00,,,0.00,WUHU216HW,2013-04-11 10:25:00,
2013-04-11 05:30:00,68.2,56.8,29.72,ENE,68,0.0,0.4,67,0.00,,,0.00,WUHU216HW,2013-04-11 10:30:00,
2013-04-11 05:35:00,68.2,56.8,29.72,WSW,248,0.4,0.4,67,0.00,,,0.00,WUHU216HW,2013-04-11 10:35:00,
2013-04-11 05:40:00,68.0,57.1,29.72,NE,45,0.0,0.4,68,0.00,,,0.00,WUHU216HW,2013-04-11 10:40:00,
2013-04-11 05:45:00,68.0,57.1,29.72,NE,45,0.0,0.4,68,0.00,,,0.00,WUHU216HW,2013-04-11 10:45:00,
2013-04-11 05:50:00,68.0,57.1,29.73,NNE,23,0.4,0.4,68,0.00,,,0.00,WUHU216HW,2013-04-11 10:50:00,
2013-04-11 05:55:00,67.9,56.9,29.73,ENE,68,0.0,0.4,68,0.00,,,0.00,WUHU216HW,2013-04-11 10:55:00,
2013-04-11 06:00:00,67.7,56.7,29.72,SE,135,0.0,0.4,68,0.00,,,0.00,WUHU216HW,2013-04-11 11:00:00,
2013-04-11 06:05:00,67.9,57.3,29.72,SE,135,0.0,0.0,69,0.00,,,0.00,WUHU216HW,2013-04-11 11:05:00,
2013-04-11 06:10:00,67.7,57.2,29.72,North,0,0.0,0.0,69,0.00,,,0.00,WUHU216HW,2013-04-11 11:10:00,
2013-04-11 06:15:00,67.3,56.8,29.72,North,0,0.0,0.0,69,0.00,,,0.00,WUHU216HW,2013-04-11 11:15:00,
2013-04-11 06:20:00,67.3,56.8,29.72,North,0,0.0,0.0,69,0.00,,,0.00,WUHU216HW,2013-04-11 11:20:00,
2013-04-11 06:25:00,67.3,57.2,29.72,North,0,0.0,0.0,70,0.00,,,0.00,WUHU216HW,2013-04-11 11:25:00,
2013-04-11 06:30:00,67.3,57.2,29.72,North,0,0.0,0.0,70,0.00,,,0.00,WUHU216HW,2013-04-11 11:30:00,
2013-04-11 06:35:00,67.0,56.9,29.72,North,0,0.0,0.0,70,0.00,,,0.00,WUHU216HW,2013-04-11 11:35:00,
2013-04-11 06:40:00,67.0,56.9,29.72,North,0,0.0,0.0,70,0.00,,,0.00,WUHU216HW,2013-04-11 11:40:00,
2013-04-11 06:45:00,66.6,56.5,29.72,North,0,0.0,0.0,70,0.00,,,0.00,WUHU216HW,2013-04-11 11:45:00,
2013-04-11 06:50:00,66.6,56.9,29.72,North,0,0.0,0.0,71,0.00,,,0.00,WUHU216HW,2013-04-11 11:50:00,
2013-04-11 06:55:00,66.6,56.9,29.72,North,0,0.0,0.0,71,0.00,,,0.00,WUHU216HW,2013-04-11 11:55:00,
2013-04-11 07:00:00,66.6,56.9,29.72,North,0,0.0,0.0,71,0.00,,,0.00,WUHU216HW,2013-04-11 12:00:00,
2013-04-11 07:05:00,66.8,57.1,29.72,North,0,0.0,0.0,71,0.00,,,0.00,WUHU216HW,2013-04-11 12:05:00,
2013-04-11 07:10:00,66.8,57.1,29.72,North,0,0.0,0.0,71,0.00,,,0.00,WUHU216HW,2013-04-11 12:10:00,
2013-04-11 07:15:00,67.0,57.2,29.73,North,0,0.0,0.0,71,0.00,,,0.00,WUHU216HW,2013-04-11 12:15:00,
2013-04-11 07:20:00,67.0,57.2,29.72,North,0,0.0,0.0,71,0.00,,,0.00,WUHU216HW,2013-04-11 12:20:00,
2013-04-11 07:25:00,67.0,57.2,29.73,North,0,0.0,0.0,71,0.00,,,0.00,WUHU216HW,2013-04-11 12:25:00,
2013-04-11 07:30:00,67.0,57.6,29.73,SE,135,1.6,1.6,72,0.00,,,0.00,WUHU216HW,2013-04-11 12:30:00,
2013-04-11 07:35:00,67.1,57.8,29.72,South,180,2.2,2.2,72,0.00,,,0.00,WUHU216HW,2013-04-11 12:35:00,
2013-04-11 07:40:00,67.3,58.0,29.72,ESE,113,0.9,2.2,72,0.00,,,0.00,WUHU216HW,2013-04-11 12:40:00,
2013-04-11 07:45:00,67.3,58.0,29.72,East,90,0.4,2.2,72,0.00,,,0.00,WUHU216HW,2013-04-11 12:45:00,
2013-04-11 07:50:00,67.3,58.0,29.72,SE,135,0.2,1.1,72,0.00,,,0.00,WUHU216HW,2013-04-11 12:50:00,
2013-04-11 07:55:00,67.3,58.0,29.72,SE,135,1.1,3.4,72,0.00,,,0.00,WUHU216HW,2013-04-11 12:55:00,
2013-04-11 08:00:00,67.5,58.1,29.71,SE,135,1.3,3.4,72,0.00,,,0.00,WUHU216HW,2013-04-11 13:00:00,
2013-04-11 08:05:00,67.5,58.1,29.71,SSW,203,1.8,2.2,72,0.00,,,0.00,WUHU216HW,2013-04-11 13:05:00,
2013-04-11 08:10:00,67.7,58.8,29.71,NW,315,1.8,1.8,73,0.00,,,0.00,WUHU216HW,2013-04-11 13:10:00,
2013-04-11 08:15:00,67.7,58.8,29.71,ENE,68,1.8,4.7,73,0.00,,,0.00,WUHU216HW,2013-04-11 13:15:00,
2013-04-11 08:20:00,67.9,59.0,29.71,South,180,0.4,4.7,73,0.00,,,0.00,WUHU216HW,2013-04-11 13:20:00,
2013-04-11 08:25:00,68.0,59.1,29.71,South,180,1.3,2.5,73,0.00,,,0.00,WUHU216HW,2013-04-11 13:25:00,
2013-04-11 08:30:00,68.0,59.1,29.71,SSW,203,1.8,1.8,73,0.00,,,0.00,WUHU216HW,2013-04-11 13:30:00,
2013-04-11 08:35:00,68.2,59.2,29.72,NNW,338,3.1,3.1,73,0.00,,,0.00,WUHU216HW,2013-04-11 13:35:00,
2013-04-11 08:40:00,68.2,59.2,29.71,ESE,113,2.7,3.1,73,0.00,,,0.00,WUHU216HW,2013-04-11 13:40:00,
2013-04-11 08:45:00,68.4,59.4,29.71,South,180,3.4,3.4,73,0.00,,,0.00,WUHU216HW,2013-04-11 13:45:00,
2013-04-11 08:50:00,68.2,59.2,29.71,SSE,158,5.8,5.8,73,0.00,,,0.00,WUHU216HW,2013-04-11 13:50:00,
2013-04-11 08:55:00,68.2,59.2,29.71,SSE,158,5.8,5.8,73,0.00,,,0.00,WUHU216HW,2013-04-11 13:55:00,
2013-04-11 09:00:00,68.4,59.4,29.71,SSW,203,0.4,5.8,73,0.00,,,0.00,WUHU216HW,2013-04-11 14:00:00,
2013-04-11 09:05:00,68.4,59.4,29.70,SSW,203,1.1,2.5,73,0.00,,,0.00,WUHU216HW,2013-04-11 14:05:00,
2013-04-11 09:10:00,68.8,59.8,29.70,North,0,0.0,1.8,73,0.00,,,0.00,WUHU216HW,2013-04-11 14:10:00,
2013-04-11 09:15:00,69.1,60.0,29.70,North,0,0.0,1.1,73,0.00,,,0.00,WUHU216HW,2013-04-11 14:15:00,
2013-04-11 09:20:00,69.3,60.2,29.71,North,0,0.0,0.0,73,0.00,,,0.00,WUHU216HW,2013-04-11 14:20:00,
2013-04-11 09:25:00,69.3,59.9,29.71,North,0,0.0,0.0,72,0.00,,,0.00,WUHU216HW,2013-04-11 14:25:00,
2013-04-11 09:30:00,69.3,59.9,29.71,North,0,0.0,0.0,72,0.00,,,0.00,WUHU216HW,2013-04-11 14:30:00,
2013-04-11 09:35:00,69.1,59.7,29.71,North,0,0.0,0.0,72,0.00,,,0.00,WUHU216HW,2013-04-11 14:35:00,
2013-04-11 09:40:00,69.1,59.7,29.71,North,0,0.0,0.0,72,0.00,,,0.00,WUHU216HW,2013-04-11 14:40:00,
2013-04-11 09:45:00,69.1,59.7,29.71,North,0,0.0,0.0,72,0.00,,,0.00,WUHU216HW,2013-04-11 14:45:00,
2013-04-11 09:50:00,69.1,60.0,29.71,North,0,0.0,0.0,73,0.00,,,0.00,WUHU216HW,2013-04-11 14:50:00,
2013-04-11 09:55:00,69.1,60.0,29.71,North,0,0.0,0.0,73,0.00,,,0.00,WUHU216HW,2013-04-11 14:55:00,
2013-04-11 10:00:00,69.1,60.0,29.71,North,0,0.0,0.0,73,0.00,,,0.00,WUHU216HW,2013-04-11 15:00:00,
2013-04-11 10:05:00,69.1,60.0,29.71,North,0,0.0,0.0,73,0.00,,,0.00,WUHU216HW,2013-04-11 15:05:00,
2013-04-11 10:10:00,69.5,60.4,29.71,North,0,0.0,0.0,73,0.00,,,0.00,WUHU216HW,2013-04-11 15:10:00,
2013-04-11 10:15:00,69.5,60.4,29.71,North,0,0.0,0.0,73,0.00,,,0.00,WUHU216HW,2013-04-11 15:15:00,
2013-04-11 10:20:00,69.7,60.2,29.71,North,0,0.0,0.0,72,0.00,,,0.00,WUHU216HW,2013-04-11 15:20:00,
2013-04-11 10:25:00,69.7,60.2,29.70,North,0,0.0,0.0,72,0.00,,,0.00,WUHU216HW,2013-04-11 15:25:00,
2013-04-11 10:30:00,69.8,60.3,29.70,SW,225,0.4,2.7,72,0.00,,,0.00,WUHU216HW,2013-04-11 15:30:00,
2013-04-11 10:35:00,70.2,60.7,29.69,NW,315,1.1,2.7,72,0.00,,,0.00,WUHU216HW,2013-04-11 15:35:00,
2013-04-11 10:40:00,70.4,60.8,29.69,SSW,203,1.8,1.8,72,0.00,,,0.00,WUHU216HW,2013-04-11 15:40:00,
2013-04-11 10:45:00,70.6,61.0,29.69,SW,225,1.8,1.8,72,0.00,,,0.00,WUHU216HW,2013-04-11 15:45:00,
2013-04-11 10:50:00,70.7,61.2,29.69,SE,135,1.6,1.8,72,0.00,,,0.00,WUHU216HW,2013-04-11 15:50:00,
2013-04-11 10:55:00,70.9,61.0,29.69,North,0,0.0,1.8,71,0.00,,,0.00,WUHU216HW,2013-04-11 15:55:00,
2013-04-11 11:00:00,71.1,61.2,29.69,SE,135,1.3,3.4,71,0.00,,,0.00,WUHU216HW,2013-04-11 16:00:00,
2013-04-11 11:05:00,71.1,61.2,29.69,SW,225,1.6,3.4,71,0.00,,,0.00,WUHU216HW,2013-04-11 16:05:00,
2013-04-11 11:10:00,71.1,60.8,29.68,SW,225,1.1,2.0,70,0.00,,,0.00,WUHU216HW,2013-04-11 16:10:00,
2013-04-11 11:15:00,71.1,60.8,29.67,North,0,0.0,2.0,70,0.00,,,0.00,WUHU216HW,2013-04-11 16:15:00,
2013-04-11 11:20:00,71.3,61.0,29.67,North,0,0.0,1.1,70,0.00,,,0.00,WUHU216HW,2013-04-11 16:20:00,
2013-04-11 11:25:00,71.6,61.4,29.67,North,0,0.0,0.0,70,0.00,,,0.00,WUHU216HW,2013-04-11 16:25:00,
2013-04-11 11:30:00,71.8,61.6,29.66,North,0,0.0,0.0,70,0.00,,,0.00,WUHU216HW,2013-04-11 16:30:00,
2013-04-11 11:35:00,72.2,62.3,29.66,North,0,0.0,0.0,71,0.00,,,0.00,WUHU216HW,2013-04-11 16:35:00,
2013-04-11 11:40:00,72.5,62.3,29.65,North,0,0.0,0.0,70,0.00,,,0.00,WUHU216HW,2013-04-11 16:40:00,
2013-04-11 11:45:00,72.7,62.5,29.65,North,0,0.0,0.0,70,0.00,,,0.00,WUHU216HW,2013-04-11 16:45:00,
2013-04-11 11:50:00,73.1,62.4,29.64,North,0,0.0,0.0,69,0.00,,,0.00,WUHU216HW,2013-04-11 16:50:00,
2013-04-11 11:55:00,73.3,62.6,29.64,North,0,0.0,0.0,69,0.00,,,0.00,WUHU216HW,2013-04-11 16:55:00,
2013-04-11 12:00:00,73.4,62.7,29.64,North,0,0.0,0.0,69,0.00,,,0.00,WUHU216HW,2013-04-11 17:00:00,
2013-04-11 12:05:00,73.6,62.5,29.64,North,0,0.0,0.0,68,0.00,,,0.00,WUHU216HW,2013-04-11 17:05:00,
2013-04-11 12:10:00,73.8,62.7,29.64,North,0,0.0,0.0,68,0.00,,,0.00,WUHU216HW,2013-04-11 17:10:00,
2013-04-11 12:15:00,73.6,62.5,29.63,North,0,0.0,0.0,68,0.00,,,0.00,WUHU216HW,2013-04-11 17:15:00,
2013-04-11 12:20:00,73.4,62.3,29.63,North,0,0.0,0.0,68,0.00,,,0.00,WUHU216HW,2013-04-11 17:20:00,
2013-04-11 12:25:00,73.4,62.7,29.61,North,0,0.0,0.0,69,0.00,,,0.00,WUHU216HW,2013-04-11 17:25:00,
2013-04-11 12:30:00,73.6,62.9,29.61,South,180,3.1,3.1,69,0.00,,,0.00,WUHU216HW,2013-04-11 17:30:00,
2013-04-11 12:35:00,73.8,63.1,29.61,SE,135,4.0,4.0,69,0.00,,,0.00,WUHU216HW,2013-04-11 17:35:00,
2013-04-11 12:40:00,73.8,63.1,29.61,NE,45,4.0,4.0,69,0.00,,,0.00,WUHU216HW,2013-04-11 17:40:00,
2013-04-11 12:45:00,73.8,63.1,29.61,SW,225,2.7,4.0,69,0.00,,,0.00,WUHU216HW,2013-04-11 17:45:00,
2013-04-11 12:50:00,73.8,63.1,29.61,ENE,68,1.3,3.4,69,0.00,,,0.00,WUHU216HW,2013-04-11 17:50:00,
2013-04-11 12:55:00,73.8,63.6,29.61,SSE,158,3.4,4.5,70,0.00,,,0.00,WUHU216HW,2013-04-11 17:55:00,
2013-04-11 13:00:00,73.8,63.1,29.61,SW,225,2.0,4.5,69,0.00,,,0.00,WUHU216HW,2013-04-11 18:00:00,
2013-04-11 13:05:00,73.8,63.1,29.60,SSW,203,1.3,5.4,69,0.00,,,0.00,WUHU216HW,2013-04-11 18:05:00,
2013-04-11 13:11:00,73.8,63.1,29.60,WNW,293,0.9,5.8,69,0.00,,,0.00,WUHU216HW,2013-04-11 18:11:00,
2013-04-11 13:15:00,73.8,63.1,29.59,SE,135,3.4,5.8,69,0.00,,,0.00,WUHU216HW,2013-04-11 18:15:00,
2013-04-11 13:20:00,73.8,63.1,29.60,SW,225,3.6,3.6,69,0.00,,,0.00,WUHU216HW,2013-04-11 18:20:00,
2013-04-11 13:26:00,73.8,63.6,29.59,NNE,23,2.2,3.6,70,0.00,,,0.00,WUHU216HW,2013-04-11 18:26:00,
2013-04-11 13:31:00,73.8,63.6,29.59,SSW,203,3.4,3.6,70,0.00,,,0.00,WUHU216HW,2013-04-11 18:31:00,
2013-04-11 13:36:00,73.8,63.6,29.59,SW,225,0.9,3.4,70,0.00,,,0.00,WUHU216HW,2013-04-11 18:36:00,
2013-04-11 13:41:00,73.8,63.6,29.58,SSE,158,2.2,3.4,70,0.00,,,0.00,WUHU216HW,2013-04-11 18:41:00,
2013-04-11 13:46:00,73.8,63.6,29.58,SW,225,2.7,2.7,70,0.00,,,0.00,WUHU216HW,2013-04-11 18:46:00,
2013-04-11 13:51:00,73.8,63.6,29.58,East,90,2.2,5.4,70,0.00,,,0.00,WUHU216HW,2013-04-11 18:51:00,
2013-04-11 13:56:00,73.8,63.6,29.56,WSW,248,2.9,5.4,70,0.00,,,0.00,WUHU216HW,2013-04-11 18:56:00,
2013-04-11 14:01:00,73.8,63.6,29.56,SE,135,2.7,3.4,70,0.00,,,0.00,WUHU216HW,2013-04-11 19:01:00,
2013-04-11 14:06:00,73.8,63.6,29.56,North,0,1.6,2.9,70,0.00,,,0.00,WUHU216HW,2013-04-11 19:06:00,
2013-04-11 14:11:00,74.0,63.6,29.56,West,270,0.7,2.7,70,0.00,,,0.00,WUHU216HW,2013-04-11 19:11:00,
2013-04-11 14:16:00,73.8,63.6,29.56,SW,225,3.6,4.3,70,0.00,,,0.00,WUHU216HW,2013-04-11 19:16:00,
2013-04-11 14:21:00,73.8,63.9,29.56,South,180,1.8,4.3,71,0.00,,,0.00,WUHU216HW,2013-04-11 19:21:00,
2013-04-11 14:26:00,73.8,63.9,29.57,SSE,158,1.1,3.6,71,0.00,,,0.00,WUHU216HW,2013-04-11 19:26:00,
2013-04-11 14:31:00,73.8,63.9,29.56,South,180,3.1,3.1,71,0.00,,,0.00,WUHU216HW,2013-04-11 19:31:00,
2013-04-11 14:36:00,73.6,63.7,29.56,South,180,2.7,3.1,71,0.00,,,0.00,WUHU216HW,2013-04-11 19:36:00,
2013-04-11 14:41:00,73.4,63.5,29.56,SSE,158,0.4,3.1,71,0.00,,,0.00,WUHU216HW,2013-04-11 19:41:00,
2013-04-11 14:46:00,73.4,63.5,29.56,ESE,113,2.0,2.7,71,0.00,,,0.00,WUHU216HW,2013-04-11 19:46:00,
2013-04-11 14:51:00,73.3,63.4,29.56,East,90,1.8,2.0,71,0.00,,,0.00,WUHU216HW,2013-04-11 19:51:00,
2013-04-11 14:56:00,73.1,63.2,29.55,SE,135,1.8,1.8,71,0.00,,,0.00,WUHU216HW,2013-04-11 19:56:00,
2013-04-11 15:01:00,73.1,63.5,29.55,SE,135,0.0,4.0,72,0.00,,,0.00,WUHU216HW,2013-04-11 20:01:00,
2013-04-11 15:06:00,72.9,63.4,29.55,SE,135,0.0,4.0,72,0.00,,,0.00,WUHU216HW,2013-04-11 20:06:00,
2013-04-11 15:11:00,72.9,63.4,29.54,SW,225,1.8,1.8,72,0.00,,,0.00,WUHU216HW,2013-04-11 20:11:00,
2013-04-11 15:17:00,72.7,63.2,29.54,North,0,0.0,1.8,72,0.00,,,0.00,WUHU216HW,2013-04-11 20:17:00,
2013-04-11 15:22:00,72.7,63.6,29.53,ESE,113,0.7,1.8,73,0.00,,,0.00,WUHU216HW,2013-04-11 20:22:00,
2013-04-11 15:27:00,72.5,63.5,29.54,North,0,0.0,0.7,73,0.00,,,0.00,WUHU216HW,2013-04-11 20:27:00,
2013-04-11 15:32:00,72.4,63.6,29.53,North,0,0.0,0.7,74,0.00,,,0.00,WUHU216HW,2013-04-11 20:32:00,
2013-04-11 15:37:00,72.4,63.6,29.53,North,0,0.0,0.0,74,0.00,,,0.00,WUHU216HW,2013-04-11 20:37:00,
2013-04-11 15:42:00,72.0,63.3,29.52,North,0,0.0,0.0,74,0.00,,,0.00,WUHU216HW,2013-04-11 20:42:00,
2013-04-11 15:47:00,72.0,63.3,29.52,North,0,0.0,0.0,74,0.00,,,0.00,WUHU216HW,2013-04-11 20:47:00,
2013-04-11 15:52:00,71.5,62.7,29.51,North,0,0.0,0.0,74,0.00,,,0.00,WUHU216HW,2013-04-11 20:52:00,
2013-04-11 15:57:00,71.3,62.9,29.52,North,0,0.0,0.0,75,0.00,,,0.00,WUHU216HW,2013-04-11 20:57:00,
2013-04-11 16:02:00,71.3,63.3,29.56,North,0,0.0,0.0,76,0.00,,,0.00,WUHU216HW,2013-04-11 21:02:00,
2013-04-11 16:07:00,70.9,62.2,29.56,North,0,0.0,0.0,74,0.00,,,0.00,WUHU216HW,2013-04-11 21:07:00,
2013-04-11 16:12:00,69.5,60.8,29.55,North,0,0.0,0.0,74,0.02,,,0.02,WUHU216HW,2013-04-11 21:12:00,
2013-04-11 17:00:00,64.1,57.8,29.58,North,0,0.0,0.0,80,0.33,,,0.02,WUHU216HW,2013-04-11 22:00:00,
2013-04-11 17:05:00,64.1,57.8,29.57,North,0,0.0,0.0,80,0.33,,,0.34,WUHU216HW,2013-04-11 22:05:00,
2013-04-11 17:10:00,64.1,57.4,29.56,North,0,0.0,0.0,79,0.30,,,0.35,WUHU216HW,2013-04-11 22:10:00,
2013-04-11 17:15:00,64.1,57.4,29.55,North,0,0.0,0.0,79,0.30,,,0.36,WUHU216HW,2013-04-11 22:15:00,
2013-04-11 17:20:00,63.9,57.2,29.56,North,0,0.0,0.0,79,0.28,,,0.38,WUHU216HW,2013-04-11 22:20:00,
2013-04-11 17:25:00,63.7,57.1,29.55,North,0,0.0,0.0,79,0.18,,,0.39,WUHU216HW,2013-04-11 22:25:00,
2013-04-11 17:30:00,63.7,57.4,29.55,North,0,0.0,0.0,80,0.18,,,0.41,WUHU216HW,2013-04-11 22:30:00,
2013-04-11 17:35:00,63.4,57.1,29.55,North,0,0.0,0.0,80,0.19,,,0.42,WUHU216HW,2013-04-11 22:35:00,
2013-04-11 17:40:00,63.2,56.9,29.56,North,0,0.0,0.0,80,0.19,,,0.44,WUHU216HW,2013-04-11 22:40:00,
2013-04-11 17:45:00,63.4,57.1,29.56,North,0,0.0,0.0,80,0.17,,,0.45,WUHU216HW,2013-04-11 22:45:00,
2013-04-11 17:50:00,63.4,57.1,29.54,North,0,0.0,0.0,80,0.17,,,0.46,WUHU216HW,2013-04-11 22:50:00,
2013-04-11 17:55:00,63.4,57.4,29.54,North,0,0.0,0.0,81,0.16,,,0.47,WUHU216HW,2013-04-11 22:55:00,
2013-04-11 18:00:00,63.4,57.4,29.53,SW,225,1.1,2.2,81,0.15,,,0.48,WUHU216HW,2013-04-11 23:00:00,
2013-04-11 18:05:00,63.5,57.6,29.51,SW,225,1.1,2.2,81,0.14,,,0.49,WUHU216HW,2013-04-11 23:05:00,
2013-04-11 18:10:00,63.4,57.4,29.47,South,180,1.3,1.8,81,0.13,,,0.49,WUHU216HW,2013-04-11 23:10:00,
2013-04-11 18:15:00,63.2,57.3,29.48,SSW,203,1.3,1.8,81,0.13,,,0.50,WUHU216HW,2013-04-11 23:15:00,
2013-04-11 18:20:00,63.0,57.4,29.53,East,90,0.7,1.8,82,0.12,,,0.50,WUHU216HW,2013-04-11 23:20:00,
2013-04-11 18:25:00,63.0,57.4,29.53,SE,135,2.0,3.1,82,0.10,,,0.50,WUHU216HW,2013-04-11 23:25:00,
2013-04-11 18:30:00,63.0,57.4,29.54,SSW,203,0.0,3.1,82,0.09,,,0.50,WUHU216HW,2013-04-11 23:30:00,
2013-04-11 18:35:00,63.0,57.1,29.54,NNW,338,0.2,1.6,81,0.06,,,0.50,WUHU216HW,2013-04-11 23:35:00,
2013-04-11 18:40:00,63.0,57.4,29.53,WSW,248,0.4,0.7,82,0.07,,,0.51,WUHU216HW,2013-04-11 23:40:00,
2013-04-11 18:45:00,63.2,57.6,29.51,SW,225,1.8,2.0,82,0.05,,,0.51,WUHU216HW,2013-04-11 23:45:00,
2013-04-11 18:50:00,63.2,57.6,29.52,SSW,203,0.4,2.0,82,0.04,,,0.51,WUHU216HW,2013-04-11 23:50:00,
2013-04-11 18:55:00,63.4,57.4,29.52,North,0,0.0,2.0,81,0.04,,,0.51,WUHU216HW,2013-04-11 23:55:00,
2013-04-11 19:00:00,63.4,57.4,29.52,WSW,248,0.9,1.1,81,0.03,,,0.51,WUHU216HW,2013-04-12 00:00:00,
2013-04-11 19:05:00,63.5,57.6,29.52,NNE,23,1.6,1.6,81,0.02,,,0.51,WUHU216HW,2013-04-12 00:05:00,
2013-04-11 19:10:00,63.5,57.6,29.52,SW,225,0.0,1.6,81,0.01,,,0.51,WUHU216HW,2013-04-12 00:10:00,
2013-04-11 19:15:00,63.5,57.6,29.53,NW,315,0.0,1.1,81,0.01,,,0.51,WUHU216HW,2013-04-12 00:15:00,
2013-04-11 19:20:00,63.5,57.6,29.52,NNW,338,0.0,1.6,81,0.01,,,0.51,WUHU216HW,2013-04-12 00:20:00,
2013-04-11 19:25:00,63.5,57.6,29.52,NNW,338,0.0,1.6,81,0.01,,,0.51,WUHU216HW,2013-04-12 00:25:00,
2013-04-11 19:30:00,63.4,57.4,29.52,ESE,113,0.7,0.7,81,0.01,,,0.51,WUHU216HW,2013-04-12 00:30:00,
2013-04-11 19:35:00,63.2,57.3,29.51,East,90,0.0,0.7,81,0.01,,,0.51,WUHU216HW,2013-04-12 00:35:00,
2013-04-11 19:40:00,63.2,57.6,29.51,NW,315,0.7,1.1,82,0.01,,,0.52,WUHU216HW,2013-04-12 00:40:00,
2013-04-11 19:45:00,63.2,57.6,29.52,NW,315,0.0,1.1,82,0.02,,,0.53,WUHU216HW,2013-04-12 00:45:00,
2013-04-11 19:50:00,63.4,57.8,29.51,West,270,0.4,0.4,82,0.02,,,0.53,WUHU216HW,2013-04-12 00:50:00,
2013-04-11 19:55:00,63.4,57.8,29.51,West,270,0.2,1.3,82,0.03,,,0.53,WUHU216HW,2013-04-12 00:55:00,
2013-04-11 20:00:00,63.4,57.8,29.50,WSW,248,0.0,1.3,82,0.03,,,0.54,WUHU216HW,2013-04-12 01:00:00,
2013-04-11 20:05:00,63.4,57.8,29.52,SW,225,0.7,0.9,82,0.03,,,0.54,WUHU216HW,2013-04-12 01:05:00,
2013-04-11 20:10:00,63.4,57.8,29.53,SW,225,0.2,1.6,82,0.03,,,0.54,WUHU216HW,2013-04-12 01:10:00,
2013-04-11 20:15:00,63.2,57.6,29.52,SW,225,0.0,1.6,82,0.03,,,0.54,WUHU216HW,2013-04-12 01:15:00,
2013-04-11 20:20:00,63.0,57.7,29.51,West,270,0.0,0.0,83,0.03,,,0.54,WUHU216HW,2013-04-12 01:20:00,
2013-04-11 20:25:00,63.0,57.7,29.52,WNW,293,0.0,1.3,83,0.03,,,0.54,WUHU216HW,2013-04-12 01:25:00,
2013-04-11 20:30:00,63.2,57.9,29.51,SSE,158,0.0,1.3,83,0.03,,,0.54,WUHU216HW,2013-04-12 01:30:00,
2013-04-11 20:35:00,63.2,57.9,29.50,ESE,113,0.0,0.7,83,0.03,,,0.55,WUHU216HW,2013-04-12 01:35:00,
2013-04-11 20:40:00,63.2,57.9,29.51,SW,225,0.0,1.8,83,0.04,,,0.56,WUHU216HW,2013-04-12 01:40:00,
2013-04-11 20:45:00,63.0,57.7,29.50,SW,225,0.7,1.8,83,0.03,,,0.56,WUHU216HW,2013-04-12 01:45:00,
2013-04-11 20:50:00,63.0,57.7,29.50,SSW,203,1.3,1.3,83,0.04,,,0.57,WUHU216HW,2013-04-12 01:50:00,
2013-04-11 20:55:00,63.0,57.7,29.51,SW,225,0.0,1.3,83,0.03,,,0.57,WUHU216HW,2013-04-12 01:55:00,
2013-04-11 21:00:00,63.0,58.1,29.50,North,0,0.4,0.9,84,0.03,,,0.57,WUHU216HW,2013-04-12 02:00:00,
2013-04-11 21:05:00,63.0,58.1,29.50,WSW,248,3.1,3.1,84,0.03,,,0.57,WUHU216HW,2013-04-12 02:05:00,
2013-04-11 21:10:00,63.0,58.1,29.51,SW,225,0.0,3.1,84,0.04,,,0.57,WUHU216HW,2013-04-12 02:10:00,
2013-04-11 21:15:00,63.0,58.1,29.51,SE,135,0.0,3.1,84,0.04,,,0.58,WUHU216HW,2013-04-12 02:15:00,
2013-04-11 21:20:00,63.0,58.1,29.52,NW,315,0.4,1.1,84,0.05,,,0.58,WUHU216HW,2013-04-12 02:20:00,
2013-04-11 21:25:00,63.0,58.1,29.52,SE,135,0.4,1.8,84,0.06,,,0.60,WUHU216HW,2013-04-12 02:25:00,
2013-04-11 21:30:00,62.8,57.9,29.53,NNW,338,0.4,4.0,84,0.08,,,0.62,WUHU216HW,2013-04-12 02:30:00,
2013-04-11 21:35:00,62.6,57.7,29.52,SSW,203,0.4,4.0,84,0.08,,,0.64,WUHU216HW,2013-04-12 02:35:00,
2013-04-11 21:40:00,62.6,58.1,29.52,SSW,203,0.7,2.5,85,0.09,,,0.65,WUHU216HW,2013-04-12 02:40:00,
2013-04-11 21:45:00,62.5,57.9,29.53,North,0,0.4,2.0,85,0.08,,,0.65,WUHU216HW,2013-04-12 02:45:00,
2013-04-11 21:50:00,62.5,57.9,29.52,SW,225,0.4,1.8,85,0.09,,,0.66,WUHU216HW,2013-04-12 02:50:00,
2013-04-11 21:55:00,62.3,57.7,29.52,WNW,293,3.4,3.4,85,0.09,,,0.66,WUHU216HW,2013-04-12 02:55:00,
2013-04-11 22:00:00,62.3,57.7,29.52,NW,315,1.1,3.4,85,0.09,,,0.66,WUHU216HW,2013-04-12 03:00:00,
2013-04-11 22:05:00,62.3,57.7,29.53,SSW,203,0.2,3.1,85,0.09,,,0.66,WUHU216HW,2013-04-12 03:05:00,
2013-04-11 22:10:00,62.1,57.5,29.54,NW,315,2.0,2.5,85,0.08,,,0.66,WUHU216HW,2013-04-12 03:10:00,
2013-04-11 22:12:00,62.1,57.5,29.54,NW,315,2.0,2.0,85,0.08,,,0.66,WUHU216HW,2013-04-12 03:12:00,
2013-04-11 22:15:00,62.1,57.5,29.54,NW,315,2.0,2.0,85,0.08,,,0.66,WUHU216HW,2013-04-12 03:15:00,
2013-04-11 22:20:00,62.1,57.5,29.54,NW,315,2.0,2.0,85,0.08,,,0.66,WUHU216HW,2013-04-12 03:20:00,
2013-04-11 22:42:00,60.8,56.3,29.57,NNW,338,1.3,1.3,85,0.03,,,0.66,WUHU216HW,2013-04-12 03:42:00,
2013-04-11 22:47:00,60.8,56.3,29.58,NNW,338,2.5,6.7,85,0.02,,,0.68,WUHU216HW,2013-04-12 03:47:00,
2013-04-11 22:52:00,60.5,56.0,29.58,NNE,23,1.6,6.7,85,0.02,,,0.68,WUHU216HW,2013-04-12 03:52:00,
2013-04-11 22:57:00,60.1,55.6,29.58,NW,315,2.7,4.5,85,0.02,,,0.68,WUHU216HW,2013-04-12 03:57:00,
2013-04-11 23:00:00,60.1,55.6,29.59,SSE,158,2.5,4.5,85,0.02,,,0.68,WUHU216HW,2013-04-12 04:00:00,
2013-04-11 23:05:00,59.8,55.3,29.60,WNW,293,1.1,3.1,85,0.02,,,0.68,WUHU216HW,2013-04-12 04:05:00,
2013-04-11 23:10:00,59.6,55.1,29.60,NW,315,1.8,3.1,85,0.02,,,0.68,WUHU216HW,2013-04-12 04:10:00,
2013-04-11 23:15:00,59.4,54.9,29.61,NNW,338,8.5,8.5,85,0.02,,,0.69,WUHU216HW,2013-04-12 04:15:00,
2013-04-11 23:20:00,59.2,54.4,29.61,NW,315,2.0,8.5,84,0.02,,,0.69,WUHU216HW,2013-04-12 04:20:00,
2013-04-11 23:25:00,58.7,53.8,29.61,NW,315,2.7,6.3,84,0.01,,,0.69,WUHU216HW,2013-04-12 04:25:00,
2013-04-11 23:30:00,58.3,53.5,29.62,SSE,158,2.0,5.1,84,0.01,,,0.69,WUHU216HW,2013-04-12 04:30:00,
2013-04-11 23:35:00,58.0,53.1,29.63,NW,315,2.2,5.1,84,0.01,,,0.69,WUHU216HW,2013-04-12 04:35:00,
2013-04-11 23:37:00,57.8,52.9,29.62,NW,315,2.0,2.0,84,0.01,,,0.69,WUHU216HW,2013-04-12 04:37:00,
2013-04-11 23:40:00,57.8,52.9,29.62,NW,315,2.0,4.7,84,0.01,,,0.69,WUHU216HW,2013-04-12 04:40:00,
2013-04-11 23:45:00,57.8,52.9,29.62,NW,315,2.0,2.0,84,0.01,,,0.69,WUHU216HW,2013-04-12 04:45:00,